Location: *
(52.2090°N, 4.1550°W)
Time: 07:00:16
(UTC+00:00)

Cosmos 841 Rocket - Pass Details

Date: 19 July 2019
Orbit: 747 x 772 km, 74.0° (Epoch: 25 August)

Event Time Altitude Azimuth Distance (km) Brightness Sun altitude
Rises 22:49:32 0° 336° (NNW) 3,207 8.7 -14.2°
Reaches altitude 10° 22:51:59 10° 342° (NNW) 2,278 7.4 -14.4°
Maximum altitude 22:56:59 48° 57° (ENE) 974 4.1 -14.7°
Enters shadow 23:00:39 18° 127° (SE) 1,799 4.9 -14.9°
